Ban Lam Kradan, Thailand

1:12 PM +07 on February 19, 2018 (GMT +0700)
Khu Khot | | Change Station

Elev 15 ft 13.96 °N, 100.65 °E | Updated 28 seconds ago

Thunderstorm
Thunderstorm
88.0 °F
Feels Like 96 °F
N
1.3
Wind Variable Wind from ENE
Gusts 3.6 mph

Today
High -- | Low -- °F
--% Chance of Precip.
Yesterday
High -- | Low -- °F
Precip. -- in
Pressure 29.83 in
Visibility 4.3 miles
Clouds Few 2000 ft
Scattered Clouds 3000 ft
Heat Index 96 °F
Dew Point 73 °F
Humidity 62%
Rainfall 0.00 in
Snow Depth Not available.
6:38 AM 6:23 PM
Waxing Crescent, 11% visible
METAR VTBD 190600Z 19008KT 150V240 7000 -TSRA FEW020CB SCT030 30/25 Q1010 NOSIG
Pressure 29.83 in
Visibility 4.3 miles
Clouds Few 2000 ft
Scattered Clouds 3000 ft
Heat Index 96 °F
Dew Point 73 °F
Humidity 62%
Rainfall 0.00 in
Snow Depth Not available.
6:38 AM 6:23 PM
Waxing Crescent, 11% visible
METAR VTBD 190600Z 19008KT 150V240 7000 -TSRA FEW020CB SCT030 30/25 Q1010 NOSIG

Get Severe Weather Alerts

Thanks for signing up!

Be on the lookout for a verification email in your inbox.

You'll start receiving the daily forecast at 6 AM.

×

10-Day Weather Forecast

No radar image for this location.
×

Almanac

Astronomy

Feb. 19, 2018 Rise Set
Actual Time
Civil Twilight
Nautical Twilight
Astronomical Twilight
Moon
Length of Visible Light
Length of Day
Tomorrow will be .
, % of the Moon is Illuminated

Today's Extremes

Country Highs Country Lows

Community

WunderPhotos

Category 6

Welcome to Category 6. This is the collective home for Weather Underground's featured writeups by Dr. Jeff Masters (right), Bob Henson (left), Chris Burt, and other regular contributors.

Nearby

Air Quality

  Air Quality AQ Index Pollutant
Not available.

Snow Depth

Station Depth Elevation

Earthquake Activity

City Distance Mag. Time & Date
Minimum magnitude displayed is 2.5.

Coastal Water Temperatures

Place Temperature

Stations

Nearby Weather Stations

Station Location Temp. Windchill Dew Point Humidity Wind Precip. Elev Updated Type